Wind_Speed
6 5 6 5 5 3 3 4 4 3 3 3 3 3 3 3 4 3 3 2 2 2 1 1 1 1 1 2 3 4 5 5 6 6 7 7 7 6 7 8 8 8 8
6 6 5 5 4 3 3 3 3 2 1 2 2 2 2 2 2 2 1 1 1 1 1 0 0 1 1 2 3 4 5 5 6 7 7 7 7 7 7 7 7 8 9
7 6 5 4 3 3 3 3 3 2 2 1 1 0 1 1 2 2 2 1 1 1 2 2 2 2 2 2 2 3 3 4 5 6 7 7 7 7 7 8 8 8 9
7 6 5 4 4 3 4 3 3 3 3 2 1 1 1 1 1 1 1 1 1 1 2 3 3 3 3 4 4 4 4 4 5 6 6 7 7 7 8 8 8 9 9
7 6 6 5 5 5 5 5 4 4 3 3 3 3 3 3 2 2 2 3 3 3 3 4 4 5 5 5 5 5 5 6 6 7 8 8 8 8 8 8 9 10 11
8 7 6 6 7 6 6 6 6 5 6 5 4 5 5 5 5 4 4 4 4 4 5 5 5 6 6 7 7 7 7 7 7 8 8 9 9 9 9 9 10 11 12
7 7 7 7 7 7 7 7 7 7 8 7 6 6 7 7 7 7 6 6 6 6 7 7 8 8 8 8 9 9 9 9 9 9 10 10 10 10 11 11 12 13 13
9 8 8 7 7 7 7 8 8 9 9 8 9 9 9 9 8 8 9 9 9 9 9 9 10 10 10 10 11 11 11 11 12 12 12 12 12 12 13 13 14 14 15
11 10 10 10 9 9 9 9 10 10 10 10 11 10 10 11 11 11 11 11 11 11 12 11 12 12 12 12 12 12 12 13 13 13 14 14 14 14 15 16 16 16 16
12 12 12 12 11 11 11 11 12 12 13 13 13 12 12 13 13 13 13 14 13 14 14 14 14 14 14 14 14 14 14 14 14 15 15 16 16 16 17 18 18 18 18
14 14 14 14 14 14 14 14 14 15 15 15 14 15 15 15 15 15 16 16 16 16 16 16 16 16 17 17 16 16 15 16 16 17 17 18 18 19 19 19 20 20 20
16 16 16 17 16 16 15 15 16 17 17 16 16 17 18 18 18 18 19 19 19 19 19 19 19 19 19 19 19 19 18 19 19 20 20 20 21 21 21 22 22 23 23
19 19 19 19 19 18 19 18 18 18 18 19 19 19 19 20 20 21 21 22 22 22 22 22 22 22 22 22 22 22 21 21 21 21 22 22 23 23 23 24 24 25 25
22 21 21 21 21 21 21 21 20 20 20 21 21 21 21 22 22 23 23 24 24 25 25 24 25 25 25 24 24 24 23 23 23 23 24 25 25 26 26 26 26 27 27
23 23 23 23 23 24 24 24 23 23 23 24 24 23 24 25 25 25 25 25 26 26 27 27 27 27 27 27 26 26 26 26 26 26 26 26 26 27 28 28 28 28 29
25 25 25 25 25 26 26 25 25 25 25 25 25 25 26 27 27 26 27 27 27 27 28 28 28 28 28 29 28 28 28 28 27 27 27 28 29 28 29 29 29 29 29
27 28 28 27 27 27 27 26 26 26 26 26 26 26 27 28 29 28 28 28 28 28 28 29 30 30 29 28 29 28 28 28 28 29 29 29 30 29 29 29 29 29 29
29 29 30 30 29 28 28 28 28 28 27 27 28 28 29 29 30 29 28 28 28 29 29 29 30 29 29 30 30 30 30 30 30 30 30 30 30 30 30 30 30 30 30
30 31 31 31 30 29 29 29 28 28 28 29 29 29 29 30 31 31 30 29 29 30 30 30 30 29 30 31 31 31 31 31 32 32 32 31 31 31 32 31 31 31 31
31 31 30 31 31 30 30 29 29 29 29 30 30 30 30 31 31 32 31 30 30 30 31 30 29 29 29 31 32 32 31 31 32 32 32 32 32 32 32 32 31 31 31
30 31 31 31 31 32 30 29 29 30 30 30 30 30 30 31 31 32 33 32 31 31 32 31 30 30 30 30 31 31 32 32 32 32 32 32 32 32 32 32 32 32 32
30 31 32 33 33 32 32 30 30 31 31 31 31 31 31 32 32 32 32 32 32 32 31 31 31 32 31 31 32 32 33 33 33 33 33 33 32 32 32 32 32 33 33
30 31 32 33 33 33 31 31 31 32 31 31 31 31 32 32 32 33 33 32 32 32 32 31 32 32 32 33 33 33 34 34 34 34 34 34 33 33 33 32 31 30 30
30 29 30 31 32 32 32 32 32 32 32 31 31 31 31 32 33 33 33 32 32 32 33 33 32 33 33 34 34 34 33 34 34 34 34 34 34 34 33 32 30 30 30
29 28 29 30 30 31 31 31 32 33 33 31 30 31 31 32 32 32 32 32 32 32 32 33 33 33 33 33 33 33 33 32 33 33 34 34 34 33 31 30 29 29 29
28 29 29 30 30 31 32 33 33 33 32 31 30 29 30 30 30 31 31 31 31 31 31 32 33 32 32 32 32 31 31 31 32 32 32 32 32 31 30 30 29 29 28
Wind_Direction
359 352 348 342 339 352 11 12 13 19 45 68 78 78 84 98 99 100 101 104 106 103 124 120 199 227 242 253 260 257 256 259 263 263 268 269 268 274 280 281 282 292 298
348 342 332 327 323 324 350 352 360 19 53 69 103 106 100 109 109 98 113 119 118 119 136 101 340 284 277 294 276 264 263 265 263 258 264 269 271 278 290 290 292 295 296
333 340 333 325 319 314 321 325 333 344 342 358 26 125 133 142 155 142 136 134 149 252 251 261 276 287 301 322 331 310 304 290 276 268 275 284 282 283 288 289 290 296 296
321 319 328 318 316 293 295 301 301 307 309 301 308 308 257 238 213 185 194 210 221 250 264 269 271 276 281 290 295 302 293 288 296 295 292 296 293 293 295 293 289 295 299
321 319 329 319 310 296 288 281 281 281 289 291 285 280 276 276 273 257 252 253 256 265 268 275 270 273 277 280 282 289 288 285 288 292 293 293 290 287 289 290 290 294 298
313 316 315 312 308 299 290 278 274 282 290 284 276 275 273 272 275 268 264 268 271 279 280 281 274 271 277 279 279 281 285 282 285 288 289 287 287 285 286 288 291 294 295
304 304 310 308 302 298 294 281 281 285 286 281 279 275 275 275 267 268 274 272 271 275 277 281 281 279 275 276 276 278 280 280 282 283 285 288 285 284 285 287 289 290 291
295 295 296 296 290 286 287 285 280 280 280 277 276 277 277 276 270 271 274 276 276 276 276 281 278 278 279 279 278 277 278 278 279 281 284 285 283 282 284 287 289 290 290
288 288 287 286 284 280 277 278 276 275 273 273 273 274 275 274 276 276 278 279 282 280 279 279 279 278 280 284 281 281 281 280 282 282 282 282 282 282 282 285 287 288 289
280 282 284 283 282 280 278 274 269 268 268 268 268 268 271 276 280 285 287 283 282 284 283 281 281 279 280 286 286 284 282 283 285 286 286 285 286 286 285 285 286 287 287
281 282 282 283 285 281 278 275 274 272 271 267 269 269 268 272 277 282 285 282 281 282 280 281 283 281 281 283 284 282 280 282 283 284 284 286 287 287 287 288 288 288 288
275 279 280 280 284 284 282 280 277 274 270 268 269 270 270 272 274 279 283 283 281 282 280 280 280 280 282 283 281 281 280 281 283 284 284 285 286 286 286 287 288 288 289
272 275 278 278 279 280 281 280 278 275 270 267 268 270 272 272 273 275 279 282 280 281 281 277 277 279 280 281 280 279 280 281 282 282 283 284 285 285 286 287 287 287 287
272 272 275 277 278 279 280 277 276 275 274 272 271 273 273 273 274 275 276 278 278 279 279 276 274 275 276 277 277 278 279 280 280 280 282 283 285 285 286 287 287 287 287
271 271 272 274 276 278 279 277 274 272 273 274 273 273 273 271 272 273 274 275 277 276 276 275 273 273 273 273 274 275 277 279 279 280 282 284 285 286 286 287 287 287 288
269 270 272 273 275 278 280 280 275 274 276 275 273 270 271 271 271 272 273 276 276 276 275 273 272 273 273 272 273 272 276 279 279 280 280 283 284 285 287 288 289 288 289
270 270 271 272 274 278 279 281 276 275 277 276 274 271 270 271 271 271 273 275 276 276 276 273 272 272 275 273 272 274 275 277 279 280 280 281 282 284 287 288 289 289 290
271 271 274 274 274 276 278 279 278 277 277 276 274 273 271 270 271 271 273 273 274 274 275 275 273 274 273 272 273 273 274 275 277 278 279 279 281 284 286 287 288 289 289
271 272 274 275 275 277 278 279 278 276 276 276 276 275 273 271 271 272 274 274 273 274 275 276 276 274 274 272 273 273 273 274 275 276 277 281 281 283 285 286 287 287 287
273 273 273 275 276 277 279 278 278 279 279 278 278 277 277 276 273 272 273 274 275 275 275 276 277 276 274 275 277 274 275 275 275 276 278 282 283 282 283 286 286 285 285
273 274 274 275 276 277 278 279 281 282 280 279 278 277 277 277 276 274 274 275 276 275 274 273 274 275 274 275 277 277 278 278 277 278 279 282 283 283 284 285 284 284 284
275 275 275 276 277 279 279 281 283 283 281 280 279 277 276 276 275 274 276 277 277 277 276 275 274 274 273 275 275 277 277 277 278 279 280 282 284 285 284 285 285 284 284
275 278 277 278 279 280 280 283 284 284 283 281 279 278 276 276 275 275 276 276 276 275 274 274 273 274 274 274 275 276 276 277 278 278 279 281 282 283 284 285 285 286 286
278 278 280 282 282 281 280 282 284 285 286 284 280 278 277 278 278 276 276 276 276 275 274 275 275 274 274 274 275 275 275 278 279 279 280 280 282 283 284 283 283 284 286
278 278 279 282 285 284 283 283 285 285 285 284 283 281 280 279 279 278 277 276 276 276 274 275 275 276 276 275 275 276 276 278 279 279 280 280 281 281 282 281 281 282 284
278 279 278 281 284 285 284 285 286 286 285 284 283 283 283 281 280 279 278 276 275 275 275 275 275 276 276 275 276 275 276 277 278 278 278 279 279 279 280 280 279 281 284
Height
5904 5903 5903 5902 5901 5901 5900 5900 5899 5898 5898 5897 5896 5896 5896 5896 5896 5896 5896 5896 5896 5896 5896 5896 5896 5896 5896 5896 5896 5896 5896 5896 5896 5896 5896 5896 5895 5895 5894 5894 5894 5894 5893
5904 5903 5902 5901 5901 5901 5900 5900 5899 5898 5898 5897 5897 5896 5896 5896 5896 5896 5896 5896 5896 5896 5896 5896 5896 5895 5895 5895 5895 5895 5895 5895 5895 5895 5894 5894 5894 5893 5893 5893 5892 5892 5891
5903 5902 5901 5901 5900 5900 5900 5900 5899 5898 5898 5897 5897 5896 5896 5896 5896 5896 5896 5896 5896 5896 5896 5896 5896 5895 5895 5895 5895 5894 5894 5894 5893 5893 5893 5893 5892 5892 5892 5891 5891 5890 5889
5903 5901 5900 5900 5900 5900 5899 5898 5898 5898 5897 5897 5896 5896 5896 5896 5896 5896 5896 5896 5896 5896 5896 5895 5895 5895 5895 5894 5894 5893 5892 5892 5892 5892 5891 5891 5891 5890 5890 5890 5889 5888 5887
5902 5901 5900 5899 5899 5898 5898 5897 5897 5897 5897 5896 5896 5896 5896 5896 5895 5895 5895 5895 5895 5895 5895 5894 5894 5894 5893 5893 5892 5892 5891 5891 5891 5890 5890 5890 5889 5888 5888 5888 5887 5886 5885
5901 5900 5899 5898 5897 5896 5895 5895 5896 5896 5895 5895 5895 5895 5895 5894 5895 5895 5894 5894 5894 5894 5893 5893 5893 5892 5892 5892 5891 5891 5890 5889 5889 5888 5888 5887 5887 5886 5886 5885 5885 5884 5883
5899 5898 5897 5897 5896 5895 5894 5894 5894 5894 5894 5893 5893 5893 5893 5893 5893 5893 5893 5892 5892 5891 5891 5891 5891 5890 5890 5889 5889 5888 5888 5887 5887 5886 5885 5885 5884 5883 5883 5882 5882 5881 5880
5897 5896 5895 5894 5893 5893 5892 5892 5892 5892 5891 5891 5891 5891 5891 5891 5890 5891 5891 5890 5890 5890 5889 5889 5888 5888 5887 5887 5886 5886 5885 5885 5884 5883 5883 5882 5881 5880 5880 5879 5878 5877 5876
5894 5893 5892 5891 5890 5890 5890 5890 5890 5889 5889 5889 5889 5888 5888 5888 5888 5888 5888 5888 5888 5887 5887 5886 5886 5885 5885 5884 5883 5883 5882 5882 5881 5880 5879 5878 5878 5877 5876 5875 5874 5874 5872
5890 5890 5889 5888 5888 5887 5887 5886 5886 5886 5885 5885 5885 5885 5885 5885 5884 5884 5884 5884 5884 5884 5883 5883 5882 5882 5881 5881 5880 5879 5879 5878 5877 5877 5876 5875 5874 5873 5872 5871 5870 5869 5868
5887 5886 5885 5885 5884 5884 5883 5883 5882 5882 5881 5880 5881 5881 5881 5881 5880 5881 5881 5880 5880 5879 5879 5879 5878 5877 5877 5876 5876 5875 5875 5874 5873 5872 5871 5870 5869 5868 5867 5866 5865 5864 5862
5883 5882 5881 5880 5880 5879 5879 5878 5878 5877 5876 5876 5876 5876 5876 5876 5876 5876 5876 5875 5875 5874 5874 5873 5873 5873 5872 5872 5871 5871 5870 5869 5868 5867 5867 5866 5864 5863 5862 5860 5859 5858 5856
5878 5877 5876 5875 5875 5874 5874 5873 5872 5872 5871 5871 5871 5870 5870 5870 5870 5870 5870 5870 5869 5869 5868 5868 5867 5867 5867 5866 5865 5865 5864 5863 5862 5862 5861 5860 5858 5857 5856 5854 5853 5851 5850
5872 5871 5871 5870 5870 5869 5868 5867 5866 5865 5865 5865 5864 5864 5864 5864 5864 5864 5864 5863 5863 5862 5862 5861 5861 5861 5860 5860 5859 5858 5858 5857 5856 5855 5854 5853 5852 5851 5849 5848 5846 5844 5842
5865 5865 5864 5864 5864 5863 5862 5861 5860 5859 5858 5858 5857 5857 5857 5857 5857 5857 5857 5856 5855 5855 5855 5854 5854 5853 5853 5852 5852 5851 5851 5850 5849 5848 5847 5846 5845 5843 5842 5840 5838 5836 5834
5858 5857 5857 5856 5856 5855 5854 5853 5852 5851 5851 5850 5849 5849 5849 5849 5849 5849 5849 5848 5848 5847 5847 5846 5845 5845 5845 5845 5844 5844 5844 5843 5842 5841 5840 5839 5837 5836 5834 5832 5830 5828 5826
5850 5850 5849 5848 5848 5847 5846 5845 5844 5843 5843 5842 5841 5841 5841 5840 5840 5841 5840 5840 5840 5839 5838 5837 5837 5837 5837 5836 5836 5835 5835 5835 5834 5833 5832 5831 5830 5828 5826 5824 5822 5820 5818
5842 5842 5841 5841 5840 5839 5838 5837 5836 5835 5834 5833 5832 5832 5831 5831 5832 5832 5832 5831 5831 5830 5829 5829 5829 5829 5829 5828 5827 5827 5826 5826 5826 5825 5824 5823 5821 5820 5818 5816 5814 5812 5809
5833 5833 5833 5832 5831 5830 5830 5829 5828 5827 5826 5825 5824 5823 5822 5823 5823 5823 5822 5822 5822 5821 5821 5820 5820 5820 5820 5820 5819 5819 5818 5818 5817 5816 5815 5814 5813 5811 5809 5807 5805 5803 5801
5825 5824 5824 5823 5822 5822 5821 5820 5819 5818 5817 5816 5815 5814 5814 5813 5813 5813 5812 5812 5812 5812 5812 5812 5812 5812 5812 5811 5810 5810 5809 5809 5808 5807 5806 5805 5804 5802 5800 5798 5796 5794 5792
5815 5815 5815 5814 5813 5812 5811 5811 5810 5809 5807 5806 5806 5805 5805 5804 5804 5803 5802 5803 5803 5803 5803 5804 5804 5804 5804 5803 5802 5801 5801 5800 5799 5798 5797 5796 5794 5792 5790 5788 5786 5785 5782
5807 5806 5805 5805 5804 5803 5802 5800 5800 5799 5798 5797 5796 5796 5796 5795 5794 5794 5793 5793 5794 5794 5794 5794 5795 5795 5794 5794 5793 5792 5792 5791 5790 5789 5788 5786 5784 5782 5780 5779 5777 5775 5773
5798 5797 5796 5796 5795 5793 5792 5792 5791 5790 5788 5787 5786 5786 5786 5785 5785 5785 5785 5785 5784 5784 5785 5785 5785 5785 5784 5784 5784 5783 5782 5781 5780 5779 5778 5776 5774 5773 5771 5769 5768 5765 5764
5789 5789 5788 5787 5786 5784 5783 5782 5781 5780 5778 5778 5777 5777 5776 5776 5775 5775 5775 5775 5775 5774 5775 5775 5775 5775 5774 5774 5773 5773 5772 5771 5770 5769 5768 5766 5765 5763 5762 5761 5759 5757 5755
5781 5780 5779 5778 5777 5775 5774 5773 5772 5770 5769 5768 5767 5767 5767 5767 5766 5765 5765 5765 5765 5765 5765 5765 5765 5765 5764 5764 5763 5763 5762 5761 5760 5759 5758 5757 5755 5754 5753 5752 5750 5749 5747
5772 5771 5770 5769 5768 5766 5765 5764 5762 5761 5759 5759 5758 5758 5758 5758 5757 5756 5756 5755 5756 5755 5755 5755 5755 5754 5754 5753 5753 5753 5752 5752 5751 5750 5748 5747 5746 5745 5744 5743 5742 5741 5739